Weather in Xudat

Azerbaijan     41°37′47″N   48°40′48″E
temp.,
°C
wind,
m/s
gust,
m/s
humid.,
%
clouds,
%
prec.,
mm/h
press.,
hPa
HPBL,
m
23 october, sat
sat2301:00+15sw10640 0.0 101992
04:00+15wnw22650 0.0 1019137
07:00+15wnw33660 0.0 1020168
10:00+15wnw11670 0.0 1021142
13:00+16ene22730 0.0 1020242
16:00+16nne22700 0.0 1019212
19:00+16se22680 0.0 1020127
22:00+15sse33700 0.0 1019143
24 october, sun
sun2401:00+15ssw22660 0.0 101897
04:00+15w22610 0.0 101781
07:00+15wnw44620 0.0 1018142
10:00+16nw44730 0.0 1019308
13:00+16nne43730 0.0 1018307
16:00+16nne22730 0.0 1017253
19:00+15s11725 0.0 1017130
22:00+14s33805 0.0 1015145
25 october, mon
mon2501:00+14s23782 0.0 1014125
04:00+14wnw22744 0.0 1014109
07:00+15nw6877100 0.0 1016644
10:00+14nnw171783100 0.0 10191143
13:00+12nnw161776100 0.0 10211080
16:00+12nnw131469100 0.1 10231509
19:00+12nnw111266100 0.3 10251708
22:00+12nnw121365100 0.8 10261846
26 october, tue
tue2601:00+11nnw141474100 0.9 10271693
04:00+11nnw141367100 1.6 10281595
07:00+11nnw151466100 0.0 10291383
10:00+10nnw131266100 0.0 10311504
13:00+10nnw111066100 0.0 10301436
16:00+11nnw101059100 0.1 10301581
19:00+11nnw8855100 0.0 10321453
22:00+11nnw665699 0.0 10321414
27 october, wed
wed2701:00+10nw445662 0.0 10321192
04:00+10wnw225640 0.0 1032816
07:00+9w226016 0.0 1032486
10:00+9sw015820 0.0 1033521
13:00+11ese45597 0.0 1031866
16:00+12ese666334 0.0 10291127
19:00+12se666746 0.0 10291030
22:00+13e5666100 0.0 10261167